Weather History for Fryeburg, ME

Change the Weather History Date:

Monday, October 10, 2011

  Actual Average Record
Temperature  
Mean Temperature 62 °F -  
Max Temperature 80 °F 60 °F 80 °F (1997)
Min Temperature 45 °F 34 °F 25 °F (2000)
Degree Days  
Heating Degree Days 2    
Growing Degree Days 12 (Base 50)    
Moisture  
Dew Point 49 °F    
Average Humidity 59    
Maximum Humidity 93    
Minimum Humidity 30    
Precipitation  
Precipitation 0.00 in - - ()
Sea Level Pressure  
Sea Level Pressure 30.14 in    
Wind  
Wind Speed 4 mph (West)    
Max Wind Speed 9 mph    
Max Gust Speed 17 mph    
Visibility 10 miles    
Events      
Averages and records for this station are not official NWS values.
T = Trace of Precipitation, MM = Missing Value Source: NWS Daily Summary

Daily Weather History Graph

Daily Weather History Graph

Search for Another Location

Airport:

Trip Planner

Search our weather history database for the weather conditions in past years. The results will help you decide how hot, cold, wet, or windy it might be!

Date:

Astronomy

Oct. 10, 2011 Rise Set
Actual Time 6:51 AM EDT 6:09 PM EDT
Civil Twilight 6:22 AM EDT 6:37 PM EDT
Nautical Twilight 5:49 AM EDT 7:11 PM EDT
Astronomical Twilight 5:15 AM EDT 7:44 PM EDT
Moon 5:11 PM EDT (10/10) 5:29 AM EDT (10/10)
Length of Visible Light 12h 15m
Length of Day
11h 17m
Waxing Gibbous, 98% of the Moon is Illuminated
Oct 10
Waxing Gibbous
Oct 11
Full
Oct 19
Last Quarter
Oct 26
New
Nov 2
First Quarter

Hourly Weather History & Observations

Time (EDT) Temp. Heat Index Dew Point Humidity Pressure Visibility Wind Dir Wind Speed Gust Speed Precip Events Conditions
12:54 AM 59.0 °F - 48.9 °F 69% 30.18 in 10.0 mi Calm Calm - N/A   Clear
1:54 AM 53.1 °F - 48.9 °F 86% 30.17 in 10.0 mi SSW 3.5 mph - N/A   Clear
2:54 AM 63.0 °F - 51.1 °F 65% 30.15 in 10.0 mi West 6.9 mph - N/A   Clear
3:54 AM 69.1 °F - 51.1 °F 53% 30.14 in 10.0 mi West 9.2 mph - N/A   Clear
4:54 AM 69.1 °F - 51.1 °F 53% 30.15 in 10.0 mi West 6.9 mph 16.1 mph N/A   Clear
5:54 AM 68.0 °F - 51.1 °F 55% 30.15 in 10.0 mi West 9.2 mph - N/A   Clear
6:54 AM 68.0 °F - 50.0 °F 52% 30.14 in 10.0 mi Calm Calm - N/A   Clear
7:54 AM 68.0 °F - 52.0 °F 56% 30.15 in 10.0 mi Calm Calm - N/A   Clear
9:54 AM 73.0 °F - 54.0 °F 51% 30.16 in 10.0 mi Variable 4.6 mph - N/A   Clear
10:54 AM 75.0 °F - 55.0 °F 50% 30.15 in 10.0 mi Variable 4.6 mph - N/A   Clear
11:54 AM 78.1 °F - 55.0 °F 45% 30.12 in 10.0 mi West 8.1 mph - N/A   Clear
12:54 PM 79.0 °F - 54.0 °F 42% 30.11 in 10.0 mi Variable 3.5 mph - N/A   Clear
1:54 PM 80.1 °F 79.9 °F 53.1 °F 39% 30.09 in 10.0 mi Variable 4.6 mph - N/A   Clear
2:54 PM 79.0 °F - 48.9 °F 35% 30.07 in 10.0 mi West 8.1 mph 17.3 mph N/A   Clear
3:54 PM 78.1 °F - 44.1 °F 30% 30.07 in 10.0 mi WNW 8.1 mph 16.1 mph N/A   Clear
5:54 PM 70.0 °F - 41.0 °F 35% 30.09 in 10.0 mi NW 5.8 mph - N/A   Clear
6:54 PM 61.0 °F - 43.0 °F 52% 30.11 in 10.0 mi NW 4.6 mph - N/A   Clear
7:54 PM 54.0 °F - 45.0 °F 72% 30.13 in 10.0 mi Calm Calm - N/A   Clear
8:54 PM 48.9 °F - 46.0 °F 90% 30.14 in 10.0 mi Calm Calm - N/A   Clear
9:54 PM 48.0 °F - 44.1 °F 86% 30.17 in 10.0 mi Calm Calm - N/A   Clear
10:54 PM 45.0 °F - 43.0 °F 93% 30.16 in 10.0 mi Calm Calm - N/A   Clear
11:54 PM 45.0 °F - 42.1 °F 90% 30.17 in 10.0 mi Calm Calm - N/A   Clear